Location: Sungai Buloh
(3.1000°N, 113.0000°E)
Time: 16:32:46
(UTC+00:00)

Cosmos 1624 Rocket - Pass Details

Date: 12 January 2026
Orbit: 752 x 780 km, 74.0° (Epoch: 11 February)

Event Time Altitude Azimuth Distance (km) Brightness Sun altitude
Exits shadow 21:00:06 30° 359° (N) 1,349 5.0 -23.5°
Maximum altitude 21:02:43 74° 78° (ENE) 804 4.1 -22.9°
Drops below altitude 10° 21:07:56 10° 162° (SSE) 2,304 7.0 -21.7°
Sets 21:10:18 0° 164° (SSE) 3,228 7.8 -21.2°
